QPF
0.00 0.00 0.00 0.00 0.00 0.00 0.00 0.00 0.00 0.00 0.00 0.00 0.00 0.01 0.01 0.01 0.01 0.00 0.00 0.00 0.00 0.00 0.00 0.00 0.00 0.00 0.00 0.00 0.00 0.00 0.00 0.00 0.00 0.00 0.00 0.00 0.00 0.00 0.00 0.00 0.00 0.00 0.00 0.00
0.00 0.00 0.00 0.00 0.01 0.00 0.00 0.00 0.00 0.00 0.00 0.00 0.01 0.03 0.01 0.00 0.00 0.00 0.00 0.00 0.00 0.00 0.00 0.00 0.00 0.00 0.00 0.00 0.00 0.00 0.00 0.00 0.00 0.00 0.00 0.00 0.00 0.00 0.00 0.00 0.00 0.00 0.00 0.00
0.00 0.00 0.00 0.01 0.02 0.02 0.00 0.00 0.00 0.01 0.01 0.00 0.00 0.00 0.00 0.00 0.00 0.00 0.00 0.00 0.00 0.00 0.00 0.00 0.00 0.00 0.00 0.00 0.00 0.00 0.00 0.00 0.00 0.00 0.00 0.00 0.00 0.00 0.00 0.00 0.00 0.00 0.00 0.00
0.01 0.01 0.01 0.02 0.01 0.01 0.00 0.01 0.02 0.02 0.02 0.01 0.00 0.00 0.00 0.00 0.00 0.00 0.00 0.00 0.00 0.00 0.00 0.00 0.00 0.00 0.00 0.00 0.00 0.00 0.00 0.00 0.00 0.00 0.00 0.00 0.00 0.00 0.00 0.00 0.00 0.00 0.00 0.00
0.02 0.02 0.02 0.00 0.00 0.02 0.02 0.01 0.02 0.02 0.02 0.01 0.00 0.00 0.00 0.00 0.00 0.00 0.00 0.00 0.00 0.00 0.00 0.00 0.00 0.00 0.00 0.00 0.00 0.00 0.00 0.00 0.00 0.00 0.00 0.00 0.00 0.00 0.00 0.00 0.00 0.00 0.00 0.00
0.03 0.05 0.04 0.00 0.02 0.04 0.06 0.01 0.03 0.02 0.01 0.00 0.00 0.00 0.00 0.00 0.00 0.00 0.00 0.00 0.00 0.00 0.00 0.00 0.00 0.00 0.00 0.00 0.00 0.00 0.00 0.00 0.00 0.00 0.00 0.00 0.00 0.00 0.00 0.00 0.00 0.00 0.00 0.00
0.04 0.03 0.04 0.03 0.02 0.03 0.03 0.04 0.03 0.01 0.00 0.00 0.00 0.00 0.00 0.00 0.00 0.00 0.00 0.00 0.00 0.00 0.00 0.00 0.00 0.00 0.00 0.00 0.00 0.00 0.00 0.00 0.00 0.00 0.00 0.00 0.00 0.00 0.00 0.00 0.00 0.00 0.00 0.00
0.02 0.03 0.01 0.02 0.01 0.01 0.03 0.04 0.00 0.00 0.00 0.00 0.00 0.00 0.00 0.00 0.00 0.00 0.00 0.00 0.00 0.00 0.00 0.00 0.00 0.00 0.00 0.00 0.00 0.00 0.00 0.00 0.00 0.00 0.00 0.00 0.00 0.00 0.00 0.00 0.00 0.00 0.00 0.00
0.01 0.00 0.00 0.00 0.02 0.01 0.00 0.00 0.00 0.00 0.00 0.00 0.00 0.00 0.00 0.00 0.00 0.00 0.00 0.00 0.00 0.00 0.00 0.00 0.00 0.00 0.00 0.00 0.00 0.00 0.00 0.00 0.00 0.00 0.00 0.00 0.00 0.00 0.00 0.00 0.00 0.00 0.00 0.00
0.00 0.00 0.00 0.00 0.00 0.01 0.00 0.01 0.00 0.00 0.00 0.00 0.00 0.00 0.00 0.00 0.00 0.00 0.00 0.00 0.00 0.00 0.00 0.00 0.00 0.00 0.00 0.00 0.00 0.00 0.00 0.00 0.00 0.00 0.00 0.00 0.00 0.00 0.00 0.00 0.00 0.00 0.00 0.00
0.00 0.00 0.00 0.00 0.00 0.00 0.00 0.00 0.00 0.00 0.00 0.00 0.00 0.00 0.00 0.00 0.00 0.00 0.00 0.00 0.00 0.00 0.00 0.00 0.00 0.00 0.00 0.00 0.00 0.00 0.00 0.00 0.00 0.00 0.00 0.00 0.00 0.00 0.00 0.00 0.00 0.00 0.00 0.00
0.00 0.00 0.00 0.00 0.00 0.00 0.00 0.00 0.00 0.00 0.00 0.00 0.00 0.00 0.00 0.00 0.00 0.00 0.00 0.00 0.00 0.00 0.00 0.00 0.00 0.00 0.00 0.00 0.00 0.00 0.00 0.00 0.00 0.00 0.00 0.00 0.00 0.00 0.00 0.00 0.00 0.00 0.00 0.00
0.00 0.00 0.00 0.00 0.00 0.00 0.00 0.00 0.00 0.00 0.00 0.00 0.00 0.00 0.00 0.00 0.00 0.00 0.00 0.00 0.00 0.00 0.00 0.00 0.00 0.00 0.00 0.00 0.00 0.00 0.00 0.00 0.00 0.00 0.00 0.00 0.00 0.00 0.00 0.00 0.00 0.00 0.00 0.00
0.00 0.00 0.00 0.00 0.00 0.00 0.00 0.00 0.00 0.00 0.00 0.00 0.00 0.00 0.00 0.00 0.00 0.00 0.00 0.00 0.00 0.00 0.00 0.00 0.00 0.00 0.00 0.00 0.00 0.00 0.00 0.00 0.00 0.00 0.00 0.00 0.00 0.00 0.00 0.00 0.00 0.00 0.00 0.00
0.00 0.00 0.00 0.00 0.00 0.00 0.00 0.00 0.00 0.00 0.00 0.00 0.00 0.00 0.00 0.00 0.00 0.00 0.00 0.00 0.00 0.00 0.00 0.00 0.00 0.00 0.00 0.00 0.00 0.00 0.00 0.00 0.00 0.00 0.00 0.00 0.00 0.00 0.00 0.00 0.00 0.00 0.00 0.00
0.00 0.00 0.00 0.00 0.00 0.00 0.00 0.00 0.00 0.00 0.00 0.00 0.00 0.00 0.00 0.00 0.00 0.00 0.00 0.00 0.00 0.00 0.00 0.00 0.00 0.00 0.00 0.00 0.00 0.00 0.00 0.00 0.00 0.00 0.00 0.00 0.00 0.00 0.00 0.00 0.00 0.00 0.00 0.00
0.00 0.00 0.00 0.00 0.00 0.00 0.00 0.00 0.00 0.00 0.00 0.00 0.00 0.00 0.00 0.00 0.00 0.00 0.00 0.00 0.00 0.00 0.00 0.00 0.00 0.00 0.00 0.00 0.00 0.00 0.00 0.00 0.00 0.00 0.00 0.00 0.00 0.00 0.00 0.00 0.00 0.00 0.00 0.00
0.00 0.00 0.00 0.00 0.00 0.00 0.00 0.00 0.00 0.00 0.00 0.00 0.00 0.00 0.00 0.00 0.00 0.00 0.00 0.00 0.00 0.00 0.00 0.00 0.00 0.00 0.00 0.00 0.00 0.00 0.00 0.00 0.00 0.00 0.00 0.00 0.00 0.00 0.00 0.00 0.00 0.00 0.00 0.00
0.00 0.00 0.00 0.00 0.00 0.00 0.00 0.00 0.00 0.00 0.00 0.00 0.00 0.00 0.00 0.00 0.00 0.00 0.00 0.00 0.00 0.00 0.00 0.00 0.00 0.00 0.00 0.00 0.00 0.00 0.00 0.00 0.00 0.00 0.00 0.00 0.00 0.00 0.00 0.00 0.00 0.00 0.00 0.00
0.00 0.00 0.00 0.00 0.00 0.00 0.00 0.00 0.00 0.00 0.00 0.00 0.00 0.00 0.00 0.00 0.00 0.00 0.00 0.00 0.00 0.00 0.00 0.00 0.00 0.00 0.00 0.00 0.00 0.00 0.00 0.00 0.00 0.00 0.00 0.00 0.00 0.00 0.00 0.00 0.00 0.00 0.00 0.00
0.00 0.00 0.00 0.00 0.00 0.00 0.00 0.00 0.00 0.00 0.00 0.00 0.00 0.00 0.00 0.00 0.00 0.00 0.00 0.00 0.00 0.00 0.00 0.00 0.00 0.00 0.00 0.00 0.00 0.00 0.00 0.00 0.00 0.00 0.00 0.00 0.00 0.00 0.00 0.00 0.00 0.00 0.00 0.00
0.00 0.00 0.00 0.00 0.00 0.00 0.00 0.00 0.00 0.00 0.00 0.00 0.00 0.00 0.00 0.00 0.00 0.00 0.00 0.00 0.00 0.00 0.00 0.00 0.00 0.00 0.00 0.00 0.00 0.00 0.00 0.00 0.00 0.00 0.00 0.00 0.00 0.00 0.00 0.00 0.00 0.00 0.00 0.00
0.00 0.00 0.00 0.00 0.00 0.00 0.00 0.00 0.00 0.00 0.00 0.00 0.00 0.00 0.00 0.00 0.00 0.00 0.00 0.00 0.00 0.00 0.00 0.00 0.00 0.00 0.00 0.00 0.00 0.00 0.00 0.00 0.00 0.00 0.00 0.00 0.00 0.00 0.00 0.00 0.00 0.00 0.00 0.00
0.00 0.00 0.00 0.00 0.00 0.00 0.00 0.00 0.00 0.00 0.00 0.00 0.00 0.00 0.00 0.00 0.00 0.00 0.00 0.00 0.00 0.00 0.00 0.00 0.00 0.00 0.00 0.00 0.00 0.00 0.00 0.00 0.00 0.00 0.00 0.00 0.00 0.00 0.00 0.00 0.00 0.00 0.00 0.00
0.00 0.00 0.00 0.00 0.00 0.00 0.00 0.00 0.00 0.00 0.00 0.00 0.00 0.00 0.00 0.00 0.00 0.00 0.00 0.00 0.00 0.00 0.00 0.00 0.00 0.00 0.00 0.00 0.00 0.00 0.00 0.00 0.00 0.00 0.00 0.00 0.00 0.00 0.00 0.00 0.00 0.00 0.00 0.02
0.00 0.00 0.00 0.00 0.00 0.00 0.00 0.00 0.00 0.00 0.00 0.00 0.00 0.00 0.00 0.00 0.00 0.00 0.00 0.00 0.00 0.00 0.00 0.00 0.00 0.00 0.00 0.00 0.00 0.00 0.00 0.00 0.00 0.00 0.00 0.00 0.00 0.00 0.00 0.00 0.00 0.00 0.01 0.01
MSLP
1009.03 1009.46 1009.32 1009.28 1009.19 1009.45 1009.76 1010.20 1010.70 1010.67 1010.78 1011.11 1011.43 1011.47 1011.22 1011.10 1011.23 1011.03 1011.09 1011.42 1011.60 1011.85 1011.84 1012.46 1012.66 1013.19 1013.73 1014.36 1014.87 1015.68 1016.20 1016.69 1016.99 1017.79 1018.67 1019.25 1019.50 1019.54 1019.71 1019.72 1019.51 1019.63 1019.75 1019.91
1009.56 1009.32 1009.26 1009.19 1009.15 1009.22 1009.74 1010.30 1010.88 1011.12 1011.07 1011.28 1011.79 1011.66 1011.03 1010.79 1010.73 1010.81 1010.99 1011.54 1011.96 1011.99 1012.30 1012.99 1013.07 1013.48 1013.96 1014.42 1014.94 1015.46 1015.81 1016.43 1016.90 1017.31 1018.08 1018.67 1019.18 1019.41 1019.41 1019.53 1019.52 1019.55 1019.64 1019.79
1009.68 1009.14 1008.94 1009.30 1009.44 1009.71 1009.90 1010.41 1011.05 1011.26 1011.64 1011.81 1012.05 1012.34 1011.47 1010.91 1010.90 1011.00 1011.24 1011.62 1011.92 1012.15 1012.52 1013.01 1013.49 1013.92 1014.15 1014.46 1014.86 1015.44 1015.71 1016.26 1016.78 1017.31 1018.02 1018.74 1019.22 1019.44 1019.62 1019.71 1019.70 1019.62 1019.64 1019.65
1009.92 1009.38 1009.35 1009.56 1009.70 1009.80 1009.99 1010.07 1010.88 1011.64 1012.04 1012.50 1012.26 1012.62 1011.76 1011.42 1011.51 1011.84 1012.05 1012.20 1012.27 1012.43 1012.56 1013.07 1013.64 1013.93 1014.22 1014.58 1014.99 1015.25 1015.66 1016.24 1016.72 1017.06 1017.79 1018.44 1019.00 1019.49 1019.54 1019.41 1019.35 1019.38 1019.40 1019.44
1010.15 1009.85 1009.77 1009.68 1009.33 1009.86 1009.84 1009.94 1010.82 1011.89 1012.53 1012.84 1013.07 1013.36 1012.10 1012.26 1012.62 1012.66 1012.67 1012.73 1012.79 1012.60 1012.58 1013.23 1013.78 1014.06 1014.43 1014.76 1015.16 1015.41 1015.82 1016.28 1016.61 1017.02 1017.42 1018.12 1018.72 1018.98 1019.01 1019.20 1019.35 1019.37 1019.36 1019.55
1010.15 1009.92 1009.86 1009.53 1009.23 1009.58 1010.02 1010.75 1011.96 1012.73 1013.18 1013.59 1012.93 1013.25 1012.77 1012.80 1012.47 1013.06 1013.14 1013.11 1013.11 1012.92 1012.91 1013.46 1014.09 1014.53 1014.98 1015.28 1015.55 1015.89 1016.30 1016.59 1016.79 1017.23 1017.70 1018.05 1018.43 1018.67 1019.00 1019.28 1019.42 1019.41 1019.47 1019.63
1010.39 1010.32 1010.10 1009.95 1009.83 1009.98 1010.54 1011.12 1013.11 1014.10 1014.13 1013.59 1013.02 1013.57 1012.40 1012.23 1012.52 1013.03 1013.45 1013.74 1013.80 1013.87 1013.79 1014.07 1014.70 1015.10 1015.48 1015.93 1016.22 1016.40 1016.64 1017.00 1017.15 1017.36 1017.69 1018.03 1018.37 1018.72 1019.08 1019.31 1019.57 1019.76 1019.81 1019.81
1010.99 1011.62 1010.31 1009.78 1009.81 1009.83 1010.70 1010.96 1011.98 1012.66 1013.63 1013.42 1013.19 1013.41 1012.73 1012.84 1013.04 1013.47 1013.95 1014.36 1014.70 1014.81 1014.73 1015.11 1015.54 1015.82 1016.14 1016.34 1016.49 1016.70 1017.05 1017.44 1017.58 1017.71 1017.98 1018.13 1018.43 1018.81 1019.14 1019.34 1019.54 1019.64 1019.68 1019.65
1011.36 1010.79 1009.97 1009.78 1009.49 1009.67 1010.19 1010.56 1010.71 1011.74 1012.84 1013.37 1013.32 1013.42 1013.34 1013.63 1014.00 1014.33 1014.76 1015.12 1015.53 1015.81 1015.89 1016.04 1016.22 1016.41 1016.80 1016.97 1017.06 1017.08 1017.31 1017.68 1017.92 1018.15 1018.36 1018.63 1018.80 1018.96 1019.19 1019.35 1019.53 1019.68 1019.76 1019.63
1010.83 1010.38 1009.93 1009.66 1009.47 1009.52 1009.52 1009.95 1010.74 1011.76 1013.08 1013.87 1013.74 1013.78 1013.31 1013.96 1014.44 1014.90 1015.34 1015.71 1016.10 1016.41 1016.57 1016.84 1016.96 1017.08 1017.25 1017.29 1017.42 1017.50 1017.63 1017.85 1018.11 1018.37 1018.56 1018.84 1019.07 1019.19 1019.41 1019.63 1019.75 1019.75 1019.77 1019.71
1010.79 1010.82 1010.57 1009.92 1009.78 1009.91 1009.92 1010.08 1010.82 1011.64 1012.93 1013.58 1014.23 1013.46 1012.45 1013.09 1013.85 1014.65 1015.25 1015.71 1016.17 1016.61 1016.89 1017.13 1017.22 1017.40 1017.45 1017.49 1017.56 1017.71 1017.88 1018.06 1018.27 1018.42 1018.80 1019.03 1019.30 1019.38 1019.49 1019.63 1019.69 1019.65 1019.59 1019.54
1010.97 1011.09 1010.98 1010.46 1010.11 1009.97 1009.95 1010.11 1010.77 1012.19 1013.16 1013.72 1013.95 1013.14 1012.41 1012.68 1013.35 1014.29 1015.13 1015.66 1016.19 1016.51 1016.78 1017.05 1017.32 1017.53 1017.71 1017.91 1017.96 1018.14 1018.29 1018.45 1018.60 1018.75 1019.00 1019.19 1019.29 1019.43 1019.57 1019.60 1019.52 1019.42 1019.36 1019.29
1011.56 1011.51 1011.51 1010.95 1010.65 1010.05 1010.01 1010.10 1010.68 1011.67 1012.69 1013.52 1013.97 1013.16 1012.66 1012.92 1013.80 1014.42 1014.98 1015.66 1016.14 1016.42 1016.80 1017.26 1017.62 1017.87 1018.14 1018.36 1018.41 1018.47 1018.60 1018.67 1018.67 1018.82 1018.98 1019.13 1019.27 1019.34 1019.48 1019.50 1019.42 1019.45 1019.44 1019.40
1011.79 1011.88 1011.83 1011.49 1010.71 1010.42 1010.23 1010.15 1010.58 1011.43 1012.82 1013.13 1013.09 1012.91 1013.01 1013.41 1013.85 1014.49 1015.01 1015.43 1015.75 1016.15 1016.77 1017.38 1017.94 1018.11 1018.31 1018.55 1018.62 1018.71 1018.84 1018.84 1018.89 1019.04 1019.29 1019.48 1019.49 1019.56 1019.50 1019.49 1019.38 1019.38 1019.26 1019.14
1012.21 1012.31 1011.88 1011.26 1010.67 1010.35 1010.22 1010.23 1010.56 1011.17 1011.67 1012.40 1012.30 1012.66 1012.76 1013.06 1013.42 1013.67 1014.36 1015.43 1015.98 1016.44 1016.95 1017.38 1017.90 1018.32 1018.56 1018.74 1018.70 1018.75 1018.91 1019.08 1019.17 1019.43 1019.49 1019.52 1019.40 1019.39 1019.30 1019.31 1019.36 1019.21 1019.07 1018.88
1012.87 1012.80 1012.37 1011.82 1011.09 1010.70 1010.50 1010.31 1010.53 1010.89 1011.20 1011.62 1011.93 1012.17 1012.15 1012.67 1013.51 1014.34 1014.90 1015.41 1015.95 1016.46 1017.06 1017.66 1018.17 1018.41 1018.56 1018.62 1018.78 1018.89 1019.08 1019.17 1019.26 1019.41 1019.49 1019.34 1019.28 1019.32 1019.33 1019.20 1019.12 1018.89 1018.68 1018.46
1013.21 1013.23 1013.32 1012.92 1012.02 1011.42 1011.03 1010.28 1010.28 1010.49 1010.54 1010.99 1011.78 1011.87 1012.25 1012.99 1013.68 1014.09 1014.75 1015.38 1016.00 1016.69 1017.45 1017.96 1018.22 1018.42 1018.61 1018.75 1018.79 1018.89 1018.93 1019.03 1019.16 1019.27 1019.27 1019.29 1019.28 1019.28 1019.21 1019.02 1018.92 1018.62 1018.30 1018.01
1013.37 1013.76 1014.06 1014.12 1013.26 1012.35 1010.78 1010.34 1010.29 1010.48 1010.59 1010.92 1011.52 1012.12 1012.75 1013.49 1014.34 1014.60 1014.84 1015.38 1016.44 1017.23 1017.77 1018.21 1018.49 1018.71 1018.79 1018.77 1018.73 1018.72 1018.91 1019.03 1019.05 1019.07 1018.99 1018.96 1018.95 1018.95 1018.73 1018.76 1018.50 1018.19 1017.94 1017.70
1013.59 1014.19 1014.96 1015.20 1014.60 1012.78 1011.11 1010.71 1010.70 1010.71 1011.03 1011.24 1011.76 1012.71 1013.41 1014.28 1014.81 1015.63 1015.77 1016.12 1016.80 1017.41 1017.96 1018.31 1018.60 1018.64 1018.65 1018.60 1018.67 1018.83 1019.00 1019.04 1018.99 1018.86 1018.78 1018.70 1018.73 1018.77 1018.54 1018.31 1018.06 1017.82 1017.62 1017.49
1014.01 1014.43 1015.30 1015.94 1015.52 1013.82 1011.78 1011.09 1010.92 1011.11 1011.40 1011.14 1011.78 1012.81 1013.83 1014.71 1015.77 1016.17 1016.52 1016.81 1017.39 1017.71 1017.99 1018.21 1018.34 1018.49 1018.54 1018.55 1018.65 1018.81 1018.87 1018.96 1018.91 1018.63 1018.49 1018.46 1018.40 1018.35 1018.14 1017.85 1017.75 1017.51 1017.44 1017.11
1014.61 1015.43 1016.01 1016.19 1015.51 1013.54 1011.82 1011.41 1011.45 1011.92 1012.03 1011.30 1011.91 1012.86 1014.01 1014.91 1015.37 1015.65 1016.54 1017.20 1017.45 1017.68 1017.88 1018.05 1018.17 1018.47 1018.55 1018.53 1018.62 1018.75 1018.69 1018.61 1018.16 1017.98 1017.96 1018.13 1018.14 1017.98 1017.62 1017.51 1017.46 1017.41 1017.13 1016.68
1014.19 1015.15 1015.97 1016.07 1015.27 1013.59 1011.80 1012.02 1012.13 1011.64 1011.64 1011.86 1012.44 1013.15 1014.34 1015.18 1015.74 1016.27 1016.87 1017.37 1017.58 1017.64 1017.73 1017.98 1018.36 1018.52 1018.34 1018.35 1018.49 1018.49 1018.54 1017.98 1017.85 1017.89 1017.89 1017.97 1017.90 1017.65 1017.40 1017.41 1017.36 1017.15 1016.86 1016.33
1013.74 1013.62 1014.29 1014.62 1013.37 1011.97 1011.58 1011.31 1011.22 1011.55 1012.07 1012.51 1013.00 1013.85 1014.53 1015.42 1016.17 1016.68 1017.23 1017.49 1017.54 1017.65 1017.86 1018.07 1018.40 1018.51 1018.31 1018.28 1018.32 1018.35 1017.99 1017.79 1017.69 1017.67 1017.79 1017.87 1017.71 1017.45 1017.31 1017.33 1017.17 1016.90 1016.39 1015.89
1012.98 1013.02 1013.44 1013.55 1012.04 1011.77 1011.52 1011.41 1011.55 1011.74 1012.19 1012.72 1013.20 1014.00 1014.77 1015.67 1016.30 1016.81 1017.26 1017.51 1017.70 1017.80 1017.95 1018.06 1018.22 1018.39 1018.38 1018.16 1018.08 1017.99 1017.72 1017.53 1017.50 1017.64 1017.73 1017.75 1017.62 1017.33 1017.25 1017.13 1016.84 1016.43 1015.93 1015.25
1012.73 1012.95 1012.91 1012.77 1012.01 1011.65 1011.28 1011.36 1011.71 1012.15 1012.51 1013.05 1013.75 1014.28 1014.97 1015.64 1016.49 1016.87 1017.22 1017.50 1017.68 1017.73 1017.84 1018.01 1018.21 1018.27 1018.23 1017.99 1017.91 1017.70 1017.47 1017.42 1017.47 1017.59 1017.64 1017.58 1017.45 1017.34 1017.22 1016.97 1016.53 1015.95 1015.41 1014.80
1012.13 1011.71 1012.04 1011.33 1010.87 1010.88 1011.05 1011.06 1011.56 1012.33 1012.95 1013.41 1013.99 1015.00 1015.52 1015.90 1016.46 1016.77 1017.27 1017.42 1017.64 1017.80 1017.81 1017.87 1017.91 1017.99 1017.94 1017.93 1017.67 1017.43 1017.27 1017.27 1017.46 1017.58 1017.55 1017.48 1017.39 1017.24 1016.97 1016.63 1015.97 1015.45 1014.86 1014.27
Thickness
5633 5625 5629 5651 5669 5671 5675 5676 5676 5688 5697 5696 5689 5696 5706 5712 5710 5711 5713 5713 5713 5713 5717 5711 5712 5707 5702 5696 5691 5682 5676 5671 5668 5659 5650 5643 5638 5634 5630 5627 5625 5622 5618 5615
5615 5614 5642 5657 5665 5670 5672 5669 5666 5677 5686 5690 5680 5689 5701 5708 5712 5714 5711 5705 5705 5708 5706 5701 5703 5697 5695 5689 5686 5680 5675 5667 5660 5654 5647 5639 5632 5628 5625 5620 5617 5613 5610 5606
5607 5633 5651 5648 5654 5655 5662 5659 5658 5667 5671 5681 5674 5672 5689 5703 5708 5709 5708 5703 5702 5705 5697 5694 5692 5687 5685 5681 5676 5671 5667 5659 5653 5647 5638 5630 5624 5619 5614 5610 5607 5605 5601 5598
5612 5631 5637 5637 5645 5655 5648 5671 5666 5660 5657 5647 5672 5643 5676 5689 5690 5693 5692 5691 5693 5696 5693 5689 5684 5680 5678 5673 5668 5664 5659 5651 5644 5640 5631 5624 5615 5610 5605 5602 5599 5595 5591 5587
5611 5622 5627 5634 5650 5655 5658 5670 5667 5658 5649 5648 5655 5642 5668 5676 5675 5679 5683 5686 5687 5691 5691 5683 5677 5673 5669 5663 5659 5656 5651 5645 5640 5632 5626 5617 5609 5603 5599 5594 5589 5585 5581 5575
5617 5628 5634 5644 5652 5657 5660 5652 5643 5640 5638 5627 5651 5646 5652 5660 5670 5670 5676 5680 5679 5681 5682 5675 5668 5663 5658 5653 5650 5645 5640 5635 5630 5623 5615 5608 5601 5594 5587 5581 5576 5571 5566 5561
5611 5617 5628 5636 5638 5647 5645 5639 5610 5610 5612 5618 5648 5639 5660 5673 5668 5669 5667 5669 5666 5665 5665 5663 5657 5651 5646 5641 5636 5632 5627 5621 5616 5611 5605 5599 5592 5586 5579 5572 5564 5556 5550 5544
5599 5583 5622 5638 5637 5639 5635 5639 5619 5616 5608 5630 5643 5633 5654 5665 5664 5663 5660 5657 5654 5653 5651 5648 5644 5639 5636 5632 5627 5621 5615 5608 5603 5599 5593 5587 5580 5572 5564 5558 5550 5542 5535 5529
5592 5600 5629 5634 5643 5648 5643 5635 5651 5634 5633 5622 5632 5642 5648 5651 5650 5649 5645 5644 5641 5638 5637 5635 5632 5628 5622 5618 5613 5609 5603 5596 5590 5583 5577 5569 5562 5555 5548 5541 5534 5526 5518 5512
5615 5610 5627 5636 5643 5646 5649 5654 5637 5627 5621 5620 5623 5626 5633 5636 5637 5637 5635 5633 5631 5628 5625 5621 5619 5616 5611 5607 5602 5598 5593 5587 5579 5570 5563 5555 5547 5539 5530 5522 5514 5507 5499 5493
5621 5616 5618 5634 5632 5628 5637 5635 5637 5634 5620 5613 5609 5621 5645 5643 5641 5635 5631 5629 5624 5620 5617 5613 5611 5606 5602 5598 5594 5588 5583 5576 5567 5558 5547 5538 5527 5520 5512 5504 5495 5488 5481 5474
5621 5612 5609 5621 5634 5642 5640 5641 5634 5614 5628 5613 5603 5614 5649 5644 5643 5638 5629 5626 5619 5615 5612 5609 5603 5598 5592 5587 5582 5574 5566 5559 5550 5541 5531 5522 5513 5505 5495 5487 5480 5472 5464 5455
5618 5612 5601 5614 5625 5637 5637 5643 5638 5624 5613 5615 5600 5617 5641 5637 5632 5631 5624 5618 5613 5611 5606 5599 5592 5586 5580 5573 5566 5559 5552 5545 5537 5528 5519 5510 5500 5491 5481 5470 5461 5451 5442 5433
5614 5609 5609 5599 5618 5624 5628 5636 5637 5626 5605 5612 5610 5626 5634 5628 5627 5623 5619 5615 5612 5609 5601 5590 5580 5574 5567 5560 5552 5544 5536 5527 5519 5508 5497 5487 5478 5469 5459 5449 5440 5432 5424 5416
5613 5609 5618 5622 5630 5633 5633 5634 5630 5628 5624 5617 5626 5619 5627 5625 5624 5626 5621 5610 5604 5599 5589 5580 5571 5561 5553 5545 5537 5528 5518 5507 5498 5487 5478 5468 5459 5448 5440 5432 5423 5414 5406 5400
5605 5606 5616 5620 5627 5630 5628 5632 5632 5630 5630 5629 5627 5627 5632 5627 5618 5613 5608 5604 5598 5589 5581 5572 5561 5551 5542 5532 5523 5512 5500 5490 5480 5469 5459 5450 5440 5430 5421 5412 5404 5397 5390 5382
5605 5603 5598 5604 5615 5619 5614 5624 5627 5631 5633 5628 5614 5623 5627 5622 5616 5611 5605 5599 5589 5579 5567 5557 5547 5536 5526 5517 5506 5495 5485 5473 5462 5451 5440 5430 5421 5411 5402 5395 5388 5381 5375 5369
5604 5602 5592 5581 5603 5597 5626 5630 5631 5627 5632 5627 5621 5618 5618 5614 5598 5594 5599 5587 5574 5563 5551 5540 5529 5520 5510 5500 5491 5481 5469 5456 5445 5433 5424 5415 5406 5396 5389 5381 5375 5370 5364 5359
5602 5596 5585 5580 5581 5606 5624 5626 5623 5623 5623 5621 5616 5611 5606 5596 5593 5584 5581 5573 5561 5549 5536 5524 5513 5505 5495 5487 5476 5464 5450 5438 5427 5417 5406 5398 5389 5381 5375 5370 5366 5361 5356 5351
5598 5594 5591 5578 5577 5579 5616 5621 5624 5619 5597 5622 5616 5608 5601 5595 5581 5571 5567 5559 5546 5534 5523 5514 5505 5493 5483 5473 5460 5446 5432 5419 5409 5401 5392 5384 5377 5371 5366 5363 5357 5353 5348 5346
5586 5576 5577 5571 5561 5590 5610 5617 5617 5595 5596 5619 5614 5606 5593 5591 5580 5570 5556 5545 5534 5525 5515 5504 5493 5480 5468 5456 5442 5428 5416 5405 5398 5390 5383 5375 5368 5363 5359 5354 5349 5345 5343 5341
5589 5566 5562 5559 5566 5579 5610 5610 5603 5605 5611 5613 5608 5602 5588 5570 5565 5556 5546 5534 5523 5515 5505 5492 5477 5465 5453 5439 5425 5413 5400 5395 5388 5380 5373 5366 5359 5356 5353 5347 5342 5339 5336 5333
5586 5594 5581 5579 5584 5606 5607 5614 5611 5606 5604 5604 5597 5585 5576 5564 5555 5543 5530 5521 5511 5501 5489 5477 5462 5448 5435 5422 5409 5398 5393 5386 5379 5373 5365 5359 5353 5349 5345 5341 5338 5334 5331 5327
5599 5592 5590 5589 5607 5603 5607 5608 5606 5605 5602 5596 5588 5575 5567 5555 5543 5532 5520 5509 5499 5488 5476 5463 5449 5433 5418 5407 5397 5389 5384 5379 5373 5364 5357 5352 5348 5346 5341 5337 5334 5330 5326 5326
5590 5589 5588 5585 5595 5599 5604 5601 5601 5598 5591 5584 5576 5569 5557 5545 5531 5521 5510 5499 5487 5477 5464 5449 5432 5417 5405 5396 5388 5382 5377 5371 5364 5357 5351 5346 5343 5340 5336 5333 5330 5328 5324 5323
5583 5590 5582 5594 5603 5604 5603 5601 5595 5588 5584 5575 5567 5554 5544 5534 5522 5511 5498 5488 5476 5463 5451 5435 5420 5407 5396 5387 5381 5376 5369 5363 5357 5351 5346 5341 5338 5335 5333 5331 5331 5324 5323 5323